Retour au catalogue

BREEZE-M R/B

ActifHEO
NORAD 37799·ROCKET BODY·🇷🇺 Russia

Lancé Aug 17, 2011 depuis Baikonur Cosmodrome

Loading…

Prochains Passages (prochaines 24 heures)

TLE

FraisSource: Space-Track

Époque: Sep 13, 2026, 20:33 UTC

1 37799U 11045B   26256.85639618 -.00000054  00000-0  00000+0 0  9992
2 37799  51.2790  73.3235 5576262  38.4518 350.4735  3.90437062214981

Suivez BREEZE-M R/B en temps réel avec AllMySat

Download on the App Store